Regional Weather Roundup
Issued by NWS

Home | Current Version | Previous Version | Graphics & Text | Print | Product List | Glossary On
Versions: 1 2 3 4 5 6 7 8 9 10 11 12 13 14 15 16 17 18 19 20 21 22 23 24 25 26 27 28 29 30 31 32 33 34 35 36 37 38 39 40 41 42 43 44 45 46 47 48 49 50
000
ASUS45 KABQ 251610
RWRNM
WEATHER ROUNDUP FOR NEW MEXICO
NATIONAL WEATHER SERVICE ALBUQUERQUE NM
1000 AM MDT SAT OCT 25 2014

NOTE: "FAIR" MEANS FEW OR NO CLOUDS BELOW 12,000 FEET AGL WITH NO
       SIGNIFICANT WEATHER OR OBSTRUCTIONS TO VISION.

      THIS PRODUCT IS RELEASED AS TWO VERSIONS.  ONE VERSION NEAR
      THE TOP OF THE HOUR CONTAINING PRELIMINARY DATA FROM ALBUQUERQUE
      AND OTHER STATIONS.  A FINAL VERSION WITH ADDITIONAL DATA IS
      ISSUED ABOUT 10 MINUTES AFTER THE HOUR.

NMZ501-503-504-510>518-251700-
NORTHWEST PLATEAU/NORTHCENTRAL MOUNTAINS

CITY           SKY/WX    TMP DP  RH WIND       PRES   REMARKS
FARMINGTON     SUNNY     52  33  48 E8        30.33R
LOS ALAMOS     SUNNY     55  25  31 CALM      30.41S
SANTA FE       SUNNY     56  23  27 N15       30.36S
TAOS           SUNNY     54  25  32 CALM      30.42S
ANGEL FIRE     FAIR      44  27  50 CALM      30.47F

$$
NMZ402-403-502-505>509-251700-
WESTCENTRAL MOUNTAINS/SOUTHWEST MOUNTAINS

CITY           SKY/WX    TMP DP  RH WIND       PRES   REMARKS
GALLUP         SUNNY     52  32  46 CALM      30.39S
GRANTS         SUNNY     52  28  40 N6        30.42S
SILVER CITY    SUNNY     68  39  34 NW3       30.35S

$$
NMZ407-409-411-412-251700-
SOUTHERN DESERTS

CITY           SKY/WX    TMP DP  RH WIND       PRES   REMARKS
LORDSBURG      FAIR      61  46  59 SE3       30.28S
DEMING         SUNNY     65  45  48 CALM      30.28R
LAS CRUCES     SUNNY     69  47  44 E3        30.29S
HOLLOMAN AFB   MOSUNNY   64  48  56 E7        30.26S
T OR C         SUNNY     64  46  52 N3        30.30R

$$
NMZ519>523-251700-
CENTRAL VALLEYS/CENTRAL HIGHLANDS

CITY           SKY/WX    TMP DP  RH WIND       PRES   REMARKS
ALBUQUERQUE    SUNNY     58  30  34 NW3       30.34R
DOUBLE EAGLE   SUNNY     61  25  25 CALM      30.36R
MORIARTY ARPT  FAIR      58  27  30 CALM      30.37S
CLINES CORNERS SUNNY     64  26  23 W15       30.36S
BELEN          FAIR      61  30  31 NE5       30.33S
SOCORRO        FAIR      60  41  49 N6        30.32S

$$
NMZ524>526-539-540-251700-
SOUTHCENTRAL MOUNTAINS

CITY           SKY/WX    TMP DP  RH WIND       PRES   REMARKS
RUIDOSO        SUNNY     64  39  39 CALM      30.41S

$$
NMZ527>531-251700-
NORTHEAST HIGHLANDS/NORTHEAST PLAINS

CITY           SKY/WX    TMP DP  RH WIND       PRES   REMARKS
LAS VEGAS      SUNNY     67  22  18 N5        30.34R
RATON          SUNNY     62  32  32 NE8       30.29F
CLAYTON        SUNNY     77  30  17 E6        30.22R

$$
NMZ532>537-251700-
EASTCENTRAL PLAINS

CITY           SKY/WX    TMP DP  RH WIND       PRES   REMARKS
TUCUMCARI      SUNNY     68  36  30 W8        30.19F
CANNON AFB     SUNNY     70  49  47 SW5       30.24S
CLOVIS AIRPORT SUNNY     70  52  52 SW8       30.26S

$$
NMZ028-029-538-251700-
SOUTHEAST PLAINS

CITY           SKY/WX    TMP DP  RH WIND       PRES   REMARKS
ROSWELL        SUNNY     63  53  70 CALM      30.22S
CARLSBAD       SUNNY     66  57  72 CALM      30.21S
HOBBS          SUNNY     68  59  73 S7        30.24S


$$



USA.gov is the U.S. government's official web portal to all federal, state and local government web resources and services.